Location: Allentsteig
(48.6833°N, 15.3167°E)
Time: 02:00:50
(UTC+00:00)

ATLAS 3B R/B - Pass Details

Date: 18 September 2020
Orbit: 1016 x 1179 km, 63.8° (Epoch: 28 October)

Event Time Altitude Azimuth Distance (km) Brightness Sun altitude
Rises 17:40:13 0° 306° (NW) 3,785 6.9 -6.7°
Reaches altitude 10° 17:43:24 10° 320° (NW) 2,849 5.8 -7.2°
Maximum altitude 17:48:44 24° 13° (NNE) 2,034 4.2 -8.1°
Drops below altitude 10° 17:54:12 10° 65° (ENE) 2,928 4.5 -9.0°
Enters shadow 17:55:34 - 72° (ENE) 3,319 4.8 -9.2°
